Weather History for Atka, AK

Change the Weather History Date:

Tuesday, November 20, 2012

  Actual Average (PADK) Record (PADK)
Temperature  
Mean Temperature 34 °F -  
Max Temperature 37 °F 41 °F 48 °F (2003)
Min Temperature 32 °F 31 °F 20 °F (1980)
Degree Days  
Heating Degree Days 30    
Moisture  
Dew Point -13 °F    
Average Humidity 12    
Maximum Humidity 13    
Minimum Humidity 11    
Precipitation  
Precipitation 0.00 in - - ()
Sea Level Pressure  
Sea Level Pressure 30.08 in    
Wind  
Wind Speed 9 mph (East)    
Max Wind Speed 14 mph    
Max Gust Speed 18 mph    
Visibility 10 miles    
Events      
Averages and records for this station are not official NWS values.
T = Trace of Precipitation, MM = Missing Value Source: NWS Daily Summary

Daily Weather History Graph

Daily Weather History Graph

Search for Another Location

Airport:

Trip Planner

Search our weather history database for the weather conditions in past years. The results will help you decide how hot, cold, wet, or windy it might be!

Date:

Astronomy

Nov. 20, 2012 Rise Set
Actual Time 9:07 AM HAST 5:37 PM HAST
Civil Twilight 8:28 AM HAST 6:15 PM HAST
Nautical Twilight 7:46 AM HAST 6:57 PM HAST
Astronomical Twilight 7:06 AM HAST 7:38 PM HAST
Moon 2:19 PM HAST (11/20) 12:44 AM HAST (11/20)
Length of Visible Light 9h 46m
Length of Day
8h 29m
First Quarter, 53% of the Moon is Illuminated
Nov 20
First Quarter
Nov 28
Full
Dec 6
Last Quarter
Dec 12
New
Dec 19
First Quarter

Hourly Weather History & Observations

Time (HAST) Temp. Windchill Dew Point Humidity Pressure Visibility Wind Dir Wind Speed Gust Speed Precip Events Conditions
12:16 AM 35.6 °F 27.5 °F -13.0 °F 12% 29.97 in 9.0 mi ESE 11.5 mph - N/A   Overcast
12:36 AM 35.6 °F 26.6 °F -13.0 °F 12% 29.97 in 9.0 mi East 13.8 mph - N/A   Overcast
12:56 AM 35.6 °F 26.6 °F -11.2 °F 13% 29.98 in 10.0 mi East 13.8 mph - N/A   Overcast
1:16 AM 35.6 °F 27.1 °F -13.0 °F 12% 29.98 in 10.0 mi East 12.7 mph - N/A   Overcast
1:36 AM 35.6 °F 27.1 °F -13.0 °F 12% 29.99 in 10.0 mi East 12.7 mph - N/A   Overcast
1:56 AM 35.6 °F 26.6 °F -13.0 °F 12% 29.99 in 10.0 mi East 13.8 mph - N/A   Mostly Cloudy
2:16 AM 35.6 °F 27.5 °F -13.0 °F 12% 30.00 in 10.0 mi East 11.5 mph - N/A   Overcast
2:36 AM 35.6 °F 28.0 °F -13.0 °F 12% 30.00 in 10.0 mi East 10.4 mph - N/A   Overcast
2:56 AM 35.6 °F 27.5 °F -11.2 °F 13% 30.00 in 10.0 mi ESE 11.5 mph - N/A   Overcast
3:16 AM 35.6 °F 28.6 °F -13.0 °F 12% 30.00 in 10.0 mi East 9.2 mph - N/A   Overcast
3:36 AM 35.6 °F 28.6 °F -13.0 °F 12% 30.01 in 7.0 mi East 9.2 mph - N/A   Overcast
3:56 AM 35.6 °F 28.0 °F -13.0 °F 12% 30.01 in 6.0 mi East 10.4 mph - N/A   Overcast
4:16 AM 35.6 °F 28.6 °F -13.0 °F 12% 30.01 in 10.0 mi East 9.2 mph - N/A   Mostly Cloudy
4:36 AM 35.6 °F 29.2 °F -13.0 °F 12% 30.01 in 10.0 mi East 8.1 mph - N/A   Overcast
4:56 AM 35.6 °F 30.7 °F -13.0 °F 12% 30.01 in 10.0 mi ESE 5.8 mph - N/A   Overcast
5:16 AM 35.6 °F 28.6 °F -13.0 °F 12% 30.02 in 10.0 mi East 9.2 mph - N/A   Overcast
5:36 AM 35.6 °F 26.6 °F -13.0 °F 12% 30.02 in 10.0 mi East 13.8 mph - N/A   Overcast
5:56 AM 35.6 °F 27.5 °F -13.0 °F 12% 30.02 in 10.0 mi East 11.5 mph - N/A   Overcast
6:16 AM 35.6 °F 27.5 °F -13.0 °F 12% 30.03 in 10.0 mi East 11.5 mph - N/A   Overcast
6:36 AM 35.6 °F 27.5 °F -13.0 °F 12% 30.03 in 10.0 mi East 11.5 mph - N/A   Overcast
6:56 AM 35.6 °F 27.5 °F -14.8 °F 11% 30.04 in 10.0 mi ESE 11.5 mph - N/A   Overcast
7:16 AM 35.6 °F 27.1 °F -13.0 °F 12% 30.04 in 10.0 mi East 12.7 mph 17.3 mph N/A   Overcast
7:36 AM 35.6 °F 27.5 °F -14.8 °F 11% 30.05 in 10.0 mi East 11.5 mph - N/A   Overcast
7:56 AM 35.6 °F 29.2 °F -14.8 °F 11% 30.06 in 10.0 mi East 8.1 mph 18.4 mph N/A   Overcast
8:16 AM 35.6 °F 29.2 °F -14.8 °F 11% 30.06 in 9.0 mi East 8.1 mph - N/A   Overcast
8:36 AM 35.6 °F 28.0 °F - N/A% 30.07 in 10.0 mi East 10.4 mph - N/A   Overcast
8:56 AM 33.8 °F 29.6 °F -14.8 °F 12% 30.08 in 5.0 mi East 4.6 mph - N/A   Overcast
9:16 AM 33.8 °F 29.6 °F -14.8 °F 12% 30.08 in 8.0 mi ESE 4.6 mph - N/A   Overcast
9:36 AM 33.8 °F 29.6 °F -14.8 °F 12% 30.09 in 10.0 mi ESE 4.6 mph - N/A   Overcast
9:56 AM 33.8 °F - -14.8 °F 12% 30.10 in 10.0 mi Calm Calm - N/A   Overcast
10:16 AM 33.8 °F - -14.8 °F 12% 30.10 in 10.0 mi Calm Calm - N/A   Overcast
10:36 AM 35.6 °F - - N/A% 30.10 in 10.0 mi Calm Calm - N/A   Overcast
10:56 AM 35.6 °F - -14.8 °F 11% 30.11 in 10.0 mi Calm Calm - N/A   Overcast
11:16 AM 35.6 °F - -13.0 °F 12% 30.11 in 10.0 mi Calm Calm - N/A   Overcast
11:36 AM 35.6 °F - -13.0 °F 12% 30.12 in 10.0 mi Calm Calm - N/A   Overcast
11:56 AM 37.4 °F - -13.0 °F 11% 30.12 in 10.0 mi Calm Calm - N/A   Overcast
12:16 PM 37.4 °F 32.8 °F -13.0 °F 11% 30.12 in 10.0 mi WNW 5.8 mph - N/A   Overcast
12:36 PM 35.6 °F - -11.2 °F 13% 30.12 in 10.0 mi Calm Calm - N/A   Overcast
12:56 PM 37.4 °F 33.8 °F -11.2 °F 12% 30.12 in 10.0 mi WNW 4.6 mph - N/A   Overcast
1:16 PM 37.4 °F - -13.0 °F 11% 30.12 in 10.0 mi Calm Calm - N/A   Overcast
1:36 PM 37.4 °F 34.9 °F -11.2 °F 12% 30.12 in 10.0 mi SSW 3.5 mph - N/A   Overcast
1:56 PM 37.4 °F 34.9 °F -11.2 °F 12% 30.12 in 10.0 mi SSW 3.5 mph - N/A   Overcast
2:16 PM 37.4 °F 34.9 °F -11.2 °F 12% 30.12 in 10.0 mi WNW 3.5 mph - N/A   Overcast
2:36 PM 37.4 °F 32.1 °F -11.2 °F 12% 30.13 in 10.0 mi West 6.9 mph - N/A   Overcast
2:56 PM 37.4 °F 33.8 °F -11.2 °F 12% 30.13 in 10.0 mi NW 4.6 mph - N/A   Overcast
3:16 PM 35.6 °F 29.9 °F -13.0 °F 12% 30.13 in 10.0 mi NW 6.9 mph - N/A   Mostly Cloudy
3:36 PM 35.6 °F 29.9 °F -13.0 °F 12% 30.13 in 10.0 mi NW 6.9 mph - N/A   Scattered Clouds
3:56 PM 35.6 °F 29.9 °F -14.8 °F 11% 30.13 in 10.0 mi NW 6.9 mph - N/A   Mostly Cloudy
4:16 PM 37.4 °F - -13.0 °F 11% 30.13 in 10.0 mi Calm Calm - N/A   Partly Cloudy
4:36 PM 35.6 °F 31.7 °F -13.0 °F 12% 30.14 in 10.0 mi South 4.6 mph - N/A   Partly Cloudy
4:56 PM 35.6 °F 29.9 °F -13.0 °F 12% 30.14 in 10.0 mi SSW 6.9 mph - N/A   Mostly Cloudy
5:16 PM 35.6 °F 29.2 °F -14.8 °F 11% 30.15 in 10.0 mi WSW 8.1 mph - N/A   Overcast
5:36 PM 33.8 °F 27.0 °F -14.8 °F 12% 30.15 in 10.0 mi West 8.1 mph - N/A   Mostly Cloudy
5:56 PM 33.8 °F 28.6 °F -14.8 °F 12% 30.15 in 10.0 mi NW 5.8 mph - N/A   Clear
6:16 PM 32.0 °F 25.6 °F -16.6 °F 12% 30.16 in 10.0 mi NNW 6.9 mph - N/A   Clear
6:36 PM 32.0 °F 23.6 °F -16.6 °F 12% 30.17 in 10.0 mi NNW 10.4 mph - N/A   Clear
6:56 PM 33.8 °F 27.0 °F -14.8 °F 12% 30.17 in 10.0 mi NW 8.1 mph - N/A   Mostly Cloudy
7:16 PM 33.8 °F 28.6 °F -14.8 °F 12% 30.18 in 10.0 mi WNW 5.8 mph - N/A   Mostly Cloudy
7:36 PM 33.8 °F 27.0 °F -14.8 °F 12% 30.18 in 10.0 mi WNW 8.1 mph - N/A   Mostly Cloudy